Regional Weather Roundup
Issued by NWS

Home | Current Version | Previous Version | Graphics & Text | Print | Product List | Glossary On
Versions: 1 2 3 4 5 6 7 8 9 10 11 12 13 14 15 16 17 18 19 20 21 22 23 24 25 26 27 28 29 30 31 32 33 34 35 36 37 38 39 40 41 42 43 44 45 46 47 48 49 50
000
ASUS43 KLOT 140003
RWRIL

ILLINOIS REGIONAL WEATHER ROUNDUP
NATIONAL WEATHER SERVICE CHICAGO/ROMEOVILLE IL
600 PM CST WED DEC 13 2017

NOTE: "FAIR" INDICATES FEW OR NO CLOUDS BELOW 12,000 FEET WITH NO
SIGNIFICANT WEATHER AND/OR OBSTRUCTIONS TO VISIBILITY.

* THESE STATIONS ARE NOT UNDER NWS QUALITY CONTROL. THEY ALSO MAY NOT
  REPORT WEATHER SUCH AS PRECIPITATION OR FOG.

ILZ001-002-007-009-015-016-024-140100-
NORTHWEST ILLINOIS

CITY           SKY/WX    TMP DP  RH WIND       PRES   REMARKS
MOLINE         CLOUDY    36  26  67 NW28G40   29.63R WCI  23
6HR MIN TEMP:  36; 6HR MAX TEMP:  47;

STERLING*      CLOUDY    31  24  75 NW17G26   29.59R WCI  19
SAVANNA*       CLOUDY    30  22  72 NW20G30   29.61R WCI  17
$$

ILZ003-004-008-010-011-017-018-140100-
NORTH CENTRAL ILLINOIS

CITY           SKY/WX    TMP DP  RH WIND       PRES   REMARKS
ROCKFORD       CLOUDY    28  18  66 N25G31    29.56R WCI  13
6HR MIN TEMP:  28; 6HR MAX TEMP:  37; 6HR PCP: TRACE;

FREEPORT*      CLOUDY    27  20  76 NW18G30   29.59R WCI  13
ROCHELLE*        N/A     30  22  73 NW26      29.54  WCI  15
DE KALB*       CLOUDY    30  20  68 NW21G29   29.50R WCI  17
PERU*          CLOUDY    32  24  72 NW28G36   29.55R WCI  18
$$

ILZ005-006-012>014-019>023-140100-
NORTHEAST ILLINOIS

CITY           SKY/WX    TMP DP  RH WIND       PRES   REMARKS
CHICAGO-OHARE  CLOUDY    31  20  63 NW28G39   29.44R WCI  17
6HR MIN TEMP:  31; 6HR MAX TEMP:  38; 6HR PCP: TRACE;

CHICAGO-MIDWAY CLOUDY    33  22  63 NW22G41   29.45R WCI  21
6HR MIN TEMP:  33; 6HR MAX TEMP:  38; 6HR PCP: TRACE;

AURORA         CLOUDY    31  22  69 NW22G35   29.49R WCI  18
6HR MIN TEMP:  31; 6HR MAX TEMP:  38; 6HR PCP:  0.01;

LANSING*       CLOUDY    33  27  78 NW18G28   29.43R WCI  22
JOLIET*        CLOUDY    34  26  72 NW18G25   29.48R WCI  23
WAUKEGAN       CLOUDY    28  21  75 NW14G26   29.44R WCI  17
6HR MIN TEMP:  28; 6HR MAX TEMP:  35; 6HR PCP: TRACE;

DUPAGE AIRPORT CLOUDY    29  21  72 NW28G37   29.47R WCI  14
6HR MIN TEMP:  29; 6HR MAX TEMP:  38; 6HR PCP: TRACE;

KANKAKEE*      CLOUDY    35  25  67 NW20G40   29.48R WCI  23
WHEELING       CLOUDY    30  21  69 NW23G35   29.46R WCI  17
6HR MIN TEMP:  30; 6HR MAX TEMP:  38; 6HR PCP: TRACE;

MORRIS*        CLOUDY    33  26  73 NW23      29.49R WCI  21
ROMEOVILLE*    CLOUDY    32  23  70 NW25G37   29.47R WCI  19
NORTHERLY ISL    N/A     33  23  67 NW17        N/A  WCI  22
$$

LMZ740>746-140100-
SOUTHERN LAKE MICHIGAN

STATION/POSITION SKY/WX   TEMP    WIND        PRES    VSBY  WAVE
                          AIR SEA DIR/SP/G                  HT/PER
                          (F)     (DEG/KT/KT) (MB)    (MI)  (FT/S)
HARRISON CRIB              33     300/ 31/ 36   N/A
BURNHAM HARBOR             32     300/ 16/ 24   N/A
CALUMET HARBOR             34     290/ 15/ 23  995.4R
BURNS HARBOR               35     310/ 26/ 32  994.9R
MICHIGAN CITY              35     290/ 31/ 36   N/A
$$

ILZ025>027-034>036-040-047-049-050-058-095>099-140100-
WEST-CENTRAL ILLINOIS

CITY           SKY/WX    TMP DP  RH WIND       PRES   REMARKS
QUINCY         CLOUDY    41  29  62 NW24      29.71R
GALESBURG*     CLOUDY    35  29  79 W23G37    29.65R WCI  23
MACOMB*        CLOUDY    36  28  74 NW28G35   29.70R WCI  23
JACKSONVILLE*  CLOUDY    39  28  65 NW25G37   29.68R WCI  27
PITTSFIELD*    CLEAR     42  30  62 NW22G32   29.71R
$$

ILZ028>032-037-038-041>044-048-051>054-059>061-140100-
CENTRAL ILLINOIS

CITY           SKY/WX    TMP DP  RH WIND       PRES   REMARKS
PONTIAC        CLOUDY    36  28  73 NW35G47   29.53R WCI  22
BLOOMINGTON    CLOUDY    37  28  70 NW28G36   29.56R WCI  25
DECATUR        CLOUDY    39  30  70 NW22G43   29.60R WCI  29
PEORIA         CLOUDY    37  29  72 NW17G33   29.62R WCI  27
6HR MIN TEMP:  37; 6HR MAX TEMP:  47; 6HR PCP: TRACE;

LACON*         CLOUDY    36  26  66 NW35G44   29.58R WCI  22
LINCOLN*       CLOUDY    38  32  77 W17G25    29.61R WCI  29
SPRINGFIELD    CLOUDY    40  30  67 NW20G31   29.65R
6HR MIN TEMP:  40; 6HR MAX TEMP:  53; 6HR PCP: TRACE;

TAYLORVILLE    CLOUDY    41  30  66 W28G39    29.64R
6HR MIN TEMP:  41; 6HR MAX TEMP:  50;

$$

ILZ033-039-045-046-055>057-062-063-140100-
EAST-CENTRAL ILLINOIS

CITY           SKY/WX    TMP DP  RH WIND       PRES   REMARKS
CHAMPAIGN      CLOUDY    40  31  70 W30G41    29.55R
DANVILLE*      CLOUDY    38  29  68 W23G44    29.47R WCI  28
RANTOUL*       CLOUDY    40  31  69 W31G37    29.51R
MATTOON        CLOUDY    40  26  57 NW31G41   29.59R
PARIS*         CLOUDY    40  32  73 W30G44    29.56R
$$

ILZ079-100>102-140100-
SOUTHWEST ILLINOIS

CITY           SKY/WX    TMP DP  RH WIND       PRES   REMARKS
ALTON          CLEAR     45  36  70 NW12      29.67R
BELLEVILLE     CLEAR     46  32  59 NW9       29.65R
CAHOKIA*       CLEAR     52  27  38 NW20G39   29.66R
SPARTA*        CLEAR     51  33  50 W10       29.67R
$$

ILZ064>066-069>071-074>076-080>082-084>086-088>090-092>094-140100-
SOUTH-CENTRAL ILLINOIS

CITY           SKY/WX    TMP DP  RH WIND       PRES   REMARKS
CARBONDALE     CLEAR     45  25  45 SW8       29.65R
6HR MIN TEMP:  43; 6HR MAX TEMP:  53;

CAIRO*         CLEAR     48  29  48 SW9G18    29.70R
EFFINGHAM*     MOCLDY    44  35  70 W18G30    29.63R
MARION         PTCLDY    46  25  42 SW12      29.66R
MT. VERNON     PTCLDY    50  34  54 NW8G18    29.64R
CENTRALIA*     CLEAR     47  35  63 NW15G24   29.63R
SALEM*         CLEAR     47  33  57 NW15G26   29.63R
METROPOLIS*    CLEAR     49  28  43 SW10      29.69R
$$

ILZ067-068-072-073-078-083-087-091-140100-
SOUTHEAST ILLINOIS

CITY           SKY/WX    TMP DP  RH WIND       PRES   REMARKS
LAWRENCEVILLE  CLOUDY    49  30  48 W15       29.59R
FLORA*         CLOUDY    48  35  59 NW20G25   29.62R
FAIRFIELD*     CLOUDY    53  33  46 W8G21     29.61R
HARRISBURG*    CLEAR     45  28  50 SW10      29.65R
ROBINSON*      CLOUDY    45  33  65 NW23G35   29.59R
CARMI*         MOCLDY    46  27  47 SW15      29.61R
$$

ABBREVIATIONS USED IN REMARKS
   TC - TEMPERATURE IN CELSIUS
  WCI - WIND CHILL INDEX
   HX - HEAT INDEX
  VSB - VISIBILITY
$$





USA.gov is the U.S. government's official web portal to all federal, state and local government web resources and services.